When you browse on this site, cookies collect data to enhance your experience and personalize the content and advertising you see.
Visit our Privacy Policy to learn more. By continuing to use the site, you agree to this use of cookies and data.
  • In Lithuania
  • List of Countries
  • For 7 days
  • Water Temperature
  • Satellite Maps
  • Weather Map
  • Weather Widgets
  • user-avatar
    Login

    Hourly Weather Dindigul

    Today, 21 May, Tuesday

    Time Temperature Precipitation Wind Pressure Humidity
    00:00 +31°C° 0.2 mm 2 mps 733 mmHg 68%
    01:00 +31°C° 0.2 mm 2 mps 733 mmHg 70%
    02:00 +30°C° 0.2 mm 1 mps 732 mmHg 71%
    03:00 +30°C° 0 mm 1 mps 732 mmHg 72%
    04:00 +28°C° 0 mm 0 mps 732 mmHg 73%
    05:00 +28°C° 0 mm 0 mps 733 mmHg 74%
    06:00 +29°C° 0 mm 0 mps 733 mmHg 69%
    07:00 +30°C° 0 mm 0 mps 733 mmHg 63%
    08:00 +31°C° 0 mm 0 mps 734 mmHg 58%
    09:00 +32°C° 0 mm 0 mps 734 mmHg 51%
    10:00 +34°C° 0 mm 0 mps 734 mmHg 43%
    11:00 +39°C° 0 mm 1 mps 733 mmHg 36%
    12:00 +39°C° 0 mm 1 mps 733 mmHg 33%
    13:00 +40°C° 0 mm 2 mps 732 mmHg 30%
    14:00 +41°C° 0 mm 2 mps 732 mmHg 27%
    15:00 +41°C° 0 mm 2 mps 731 mmHg 26%
    16:00 +41°C° 0 mm 2 mps 731 mmHg 26%
    17:00 +41°C° 0 mm 2 mps 731 mmHg 25%
    18:00 +39°C° 0 mm 3 mps 732 mmHg 33%
    19:00 +37°C° 0 mm 4 mps 732 mmHg 41%
    20:00 +35°C° 0 mm 5 mps 733 mmHg 49%
    21:00 +34°C° 0.1 mm 4 mps 733 mmHg 55%
    22:00 +33°C° 0.1 mm 3 mps 733 mmHg 60%
    23:00 +32°C° 0.1 mm 2 mps 733 mmHg 66%

    Tomorrow, 22 May, Wednesday

    Time Temperature Precipitation Wind Pressure Humidity
    00:00 +32°C° 0.3 mm 2 mps 733 mmHg 66%
    01:00 +31°C° 0.3 mm 1 mps 732 mmHg 67%
    02:00 +29°C° 0.3 mm 0 mps 732 mmHg 67%
    03:00 +29°C° 0 mm 0 mps 732 mmHg 68%
    04:00 +29°C° 0 mm 0 mps 732 mmHg 68%
    05:00 +28°C° 0 mm 0 mps 732 mmHg 69%
    06:00 +29°C° 0 mm 0 mps 732 mmHg 65%
    07:00 +30°C° 0 mm 0 mps 733 mmHg 61%
    08:00 +33°C° 0 mm 1 mps 733 mmHg 57%
    09:00 +35°C° 0 mm 1 mps 733 mmHg 50%
    10:00 +36°C° 0 mm 1 mps 733 mmHg 44%
    11:00 +39°C° 0 mm 1 mps 733 mmHg 37%
    12:00 +40°C° 0 mm 1 mps 732 mmHg 35%
    13:00 +40°C° 0 mm 2 mps 732 mmHg 32%
    14:00 +41°C° 0 mm 2 mps 731 mmHg 29%
    15:00 +41°C° 0 mm 2 mps 731 mmHg 29%
    16:00 +40°C° 0 mm 2 mps 731 mmHg 28%
    17:00 +40°C° 0 mm 2 mps 730 mmHg 28%
    18:00 +39°C° 0.2 mm 2 mps 731 mmHg 38%
    19:00 +37°C° 0.2 mm 3 mps 732 mmHg 47%
    20:00 +35°C° 0.2 mm 4 mps 732 mmHg 57%
    21:00 +34°C° 0.3 mm 3 mps 732 mmHg 60%
    22:00 +34°C° 0.3 mm 2 mps 733 mmHg 62%
    23:00 +32°C° 0.3 mm 1 mps 733 mmHg 65%

    Day after tomorrow, 23 May, Thursday

    Time Temperature Precipitation Wind Pressure Humidity
    00:00 +32°C° 0.1 mm 1 mps 732 mmHg 65%
    01:00 +32°C° 0.1 mm 1 mps 732 mmHg 65%
    02:00 +32°C° 0.1 mm 1 mps 731 mmHg 64%
    03:00 +31°C° 0.1 mm 1 mps 731 mmHg 66%
    04:00 +31°C° 0.1 mm 1 mps 731 mmHg 67%
    05:00 +30°C° 0.1 mm 1 mps 731 mmHg 68%
    06:00 +31°C° 0.1 mm 1 mps 732 mmHg 63%
    07:00 +32°C° 0.1 mm 1 mps 733 mmHg 58%
    08:00 +34°C° 0.1 mm 1 mps 733 mmHg 53%
    09:00 +35°C° 0 mm 1 mps 733 mmHg 47%
    10:00 +37°C° 0 mm 1 mps 733 mmHg 42%
    11:00 +40°C° 0 mm 1 mps 733 mmHg 37%
    12:00 +40°C° 0 mm 1 mps 732 mmHg 34%
    13:00 +41°C° 0 mm 2 mps 732 mmHg 32%
    14:00 +41°C° 0 mm 2 mps 731 mmHg 29%
    15:00 +41°C° 0 mm 2 mps 731 mmHg 31%
    16:00 +40°C° 0 mm 2 mps 731 mmHg 32%
    17:00 +40°C° 0 mm 2 mps 731 mmHg 34%
    18:00 +38°C° 0.4 mm 2 mps 731 mmHg 39%
    19:00 +37°C° 0.4 mm 2 mps 732 mmHg 45%
    20:00 +36°C° 0.4 mm 2 mps 733 mmHg 50%
    21:00 +35°C° 0.2 mm 2 mps 733 mmHg 52%
    22:00 +34°C° 0.2 mm 2 mps 733 mmHg 55%
    23:00 +34°C° 0.2 mm 2 mps 733 mmHg 57%

    24 May, Friday

    Time Temperature Precipitation Wind Pressure Humidity
    00:00 +32°C° 0.2 mm 2 mps 733 mmHg 59%
    01:00 +31°C° 0.2 mm 2 mps 732 mmHg 62%
    02:00 +31°C° 0.2 mm 2 mps 732 mmHg 64%
    03:00 +31°C° 0.1 mm 2 mps 732 mmHg 65%
    04:00 +30°C° 0.1 mm 2 mps 732 mmHg 65%
    05:00 +30°C° 0.1 mm 2 mps 732 mmHg 65%
    06:00 +31°C° 0.1 mm 2 mps 732 mmHg 61%
    07:00 +32°C° 0.1 mm 2 mps 733 mmHg 56%
    08:00 +34°C° 0.1 mm 2 mps 734 mmHg 52%
    09:00 +35°C° 0 mm 1 mps 734 mmHg 47%
    10:00 +36°C° 0 mm 1 mps 734 mmHg 43%
    11:00 +39°C° 0 mm 1 mps 734 mmHg 38%
    12:00 +40°C° 0 mm 1 mps 733 mmHg 36%
    13:00 +40°C° 0 mm 2 mps 732 mmHg 34%
    14:00 +41°C° 0 mm 2 mps 731 mmHg 32%
    15:00 +40°C° 0 mm 2 mps 731 mmHg 34%
    16:00 +40°C° 0 mm 2 mps 731 mmHg 36%
    17:00 +39°C° 0 mm 2 mps 731 mmHg 38%
    18:00 +38°C° 0.3 mm 2 mps 732 mmHg 42%
    19:00 +37°C° 0.3 mm 2 mps 732 mmHg 46%
    20:00 +35°C° 0.3 mm 3 mps 733 mmHg 50%
    21:00 +35°C° 0 mm 2 mps 733 mmHg 52%
    22:00 +34°C° 0 mm 2 mps 733 mmHg 53%
    23:00 +32°C° 0 mm 2 mps 733 mmHg 55%

    25 May, Saturday

    Time Temperature Precipitation Wind Pressure Humidity
    00:00 +33°C° 0.2 mm 3 mps 733 mmHg 59%
    01:00 +31°C° 0.2 mm 3 mps 732 mmHg 63%
    02:00 +30°C° 0.2 mm 4 mps 732 mmHg 66%
    03:00 +30°C° 0 mm 3 mps 732 mmHg 66%
    04:00 +30°C° 0 mm 2 mps 732 mmHg 66%
    05:00 +30°C° 0 mm 1 mps 731 mmHg 66%
    06:00 +31°C° 0 mm 1 mps 732 mmHg 61%
    07:00 +32°C° 0 mm 1 mps 733 mmHg 57%
    08:00 +33°C° 0 mm 1 mps 733 mmHg 52%
    09:00 +36°C° 0 mm 2 mps 733 mmHg 47%
    10:00 +37°C° 0 mm 2 mps 733 mmHg 42%
    11:00 +39°C° 0 mm 2 mps 733 mmHg 36%
    12:00 +40°C° 0 mm 2 mps 732 mmHg 35%
    13:00 +41°C° 0 mm 2 mps 731 mmHg 33%
    14:00 +41°C° 0 mm 2 mps 731 mmHg 31%
    15:00 +42°C° 0 mm 3 mps 731 mmHg 33%
    16:00 +40°C° 0 mm 3 mps 730 mmHg 35%
    17:00 +39°C° 0 mm 3 mps 730 mmHg 37%
    18:00 +38°C° 0.1 mm 3 mps 731 mmHg 41%
    19:00 +37°C° 0.1 mm 3 mps 731 mmHg 45%
    20:00 +35°C° 0.1 mm 3 mps 732 mmHg 50%
    21:00 +35°C° 0.3 mm 3 mps 732 mmHg 53%
    22:00 +34°C° 0.3 mm 3 mps 733 mmHg 56%
    23:00 +33°C° 0.3 mm 3 mps 733 mmHg 59%

    26 May, Sunday

    Time Temperature Precipitation Wind Pressure Humidity
    00:00 +33°C° 0.1 mm 3 mps 732 mmHg 60%
    01:00 +31°C° 0.1 mm 3 mps 732 mmHg 62%
    02:00 +31°C° 0.1 mm 3 mps 731 mmHg 63%
    03:00 +31°C° 0 mm 3 mps 731 mmHg 62%
    04:00 +31°C° 0 mm 2 mps 731 mmHg 61%
    05:00 +31°C° 0 mm 2 mps 731 mmHg 61%
    06:00 +32°C° 0 mm 2 mps 731 mmHg 57%
    07:00 +34°C° 0 mm 2 mps 732 mmHg 53%
    08:00 +35°C° 0 mm 2 mps 733 mmHg 49%
    09:00 +36°C° 0 mm 2 mps 733 mmHg 44%
    10:00 +38°C° 0 mm 2 mps 732 mmHg 40%
    11:00 +40°C° 0 mm 2 mps 732 mmHg 35%
    12:00 +40°C° 0 mm 2 mps 732 mmHg 33%
    13:00 +41°C° 0 mm 2 mps 731 mmHg 32%
    14:00 +43°C° 0 mm 3 mps 730 mmHg 30%
    15:00 +42°C° 0 mm 3 mps 730 mmHg 33%
    16:00 +41°C° 0 mm 4 mps 730 mmHg 35%
    17:00 +40°C° 0 mm 4 mps 730 mmHg 38%
    18:00 +38°C° 0.1 mm 4 mps 730 mmHg 42%
    19:00 +37°C° 0.1 mm 3 mps 731 mmHg 47%
    20:00 +35°C° 0.1 mm 3 mps 731 mmHg 51%
    21:00 +35°C° 0.4 mm 3 mps 732 mmHg 54%
    22:00 +34°C° 0.4 mm 3 mps 732 mmHg 56%
    23:00 +33°C° 0.4 mm 3 mps 732 mmHg 58%
    Show more